星链-35924(STARLINK-35924)

导读 | 豆包AI

STARLINK-35924是美国SpaceX公司星链(Starlink)星座的一员,于2025年11月19日发射升空。星链星座旨在构建全球低轨卫星互联网,为全球缺乏传统基础设施的偏远地区提供高速低延迟宽带服务。该卫星采用平板设计,搭载氪工质霍尔推进器,具备自主避撞能力,服役寿命约5-7年,退役后会再入大气层烧毁,减少空间碎片威胁。

基本信息
目录编号:
66516
目录名称:
STARLINK-35924
国际标识:
2025-265A
轨道中心:
EARTH
卫星名称:
星链-35924
卫星全名:
星链-35924(STARLINK-35924)
卫星状态:
在轨 (已飞行115 天)
发射日期:
2025-11-19 UTC
国别 :
美国 (US)
星等 :
--
轨道信息
数据来源 国际轨道数据
星历时间: 2026-03-14T04:32:20+0800
9小时前
查看轨道信息
半长轴: 6861.109km
偏心率: 0.0000684
轨道倾角: 42.998°
近地点辐角 337.110°
升交点赤经 254.148°
平近点角 22.972°
近地点: 482.502km
远地点: 483.442km
周期: 94.265分钟
每日圈数: 15.276059
详细信息
固有亮度:
5
最大亮度:
2.5
卫星平台:
Starlink V1.0
覆盖范围:
全球
运营商:
太空探索技术公司
运营商所在国:
美国
制造商(研发单位):
太空探索技术公司
制造商所在国:
美国
使用方式:
暂无
卫星简介
Starlink 计划是 SpaceX 推出的全球卫星互联网项目,通过发射低轨道卫星,为全球尤其是偏远地区提供高速、低延迟的互联网服务。自 2019 年起,Starlink 已部署数千颗卫星,旨在缩小全球数字鸿沟,推动互联网普及。该项目还为军事、航空等行业提供通信支持,带来广泛经济效益。
2D轨道图
3D轨道图
轨道高度分析图
轨道倾角分析图
轨道综合分析图
查看轨道综合分析图